Location: Oberstdorf
(47.4188°N, 10.2969°E)
Time: 06:11:24
(UTC+01:00)

ISS - Pass Details

Date: 05 January 2018
Orbit: 402 x 407 km, 51.6° (Epoch: 19 January)

Event Time Altitude Azimuth Distance (km) Brightness Sun altitude
Exits shadow 06:03:45 39° 11° (NNE) 628 -3.0 -19.8°
Drops below altitude 10° 06:06:31 10° 64° (ENE) 1,471 -0.3 -19.3°
Sets 06:08:41 0° 72° (ENE) 2,334 1.0 -19.0°
